Home   Weather   St. Petersburg   Past weeks

Flag for USA Past Weather in St. Petersburg, Florida, USA — Yesterday and Last 2 Weeks

Now
84 °F

Sunny.


Feels Like: 93 °F
Forecast: 79 / 90 °F
Wind: 6 mph from South

Location: Whitted Airport

Current Time: Jul 21, 2017 at 10:50:00 am

Latest Report: Jul 21, 2017 at 9:53 am


Visibility: 10 mi

Pressure: 30.06 "Hg

Humidity: 77%

Dew Point: 76 °F

Location of St. PetersburgLocation

Past Weather in St. Petersburg — Graph

°F

St. Petersburg Temperature Yesterday

Maximum temperature yesterday: 91 °F (at 3:53 pm)
Minimum temperature yesterday: 79 °F (at 12:57 pm)
Average temperature yesterday: 84 °F

High & Low Weather Summary for the Past Weeks

 TemperatureHumidityPressure
High95 °F (Jul 6, 3:53 pm)91% (Jul 8, 9:55 pm)30.16 "Hg (Jul 8, 9:55 pm)
Low75 °F (Jul 10, 5:53 pm)40% (Jul 6, 3:53 pm)29.90 "Hg (Jul 16, 5:53 pm)
Average84 °F73%30.05 "Hg
* Reported Jul 6 8:53 am — Jul 21 8:53 am, St. Petersburg. Weather by CustomWeather, © 2017

Note: Actual official high and low records may vary slightly from our data, if they occured in-between our weather recording intervals... More about our weather records

Advertising

St. Petersburg Weather History for the Previous 24 Hours

Scroll right to see more
 ConditionsComfort  
Time TempWeatherWind HumidityBarometerVisibility
8:53 am
Fri, Jul 21
84 °FSunny.5 mph77%30.05 "Hg10 mi
7:53 am83 °FSunny.5 mph79%30.03 "Hg10 mi
6:53 am81 °FSunny.6 mph85%30.01 "Hg10 mi
6:17 am81 °FClear.9 mph88%30.00 "Hg10 mi
5:53 am81 °FThundershowers. Passing clouds.7 mph88%29.99 "Hg10 mi
5:31 am81 °FPassing clouds.7 mph88%30.00 "Hg10 mi
5:13 am82 °FPassing clouds.9 mph85%30.00 "Hg10 mi
4:53 am82 °FPassing clouds.8 mph88%29.99 "Hg10 mi
4:21 am82 °FPassing clouds.8 mph88%29.99 "Hg10 mi
4:04 am82 °FPartly cloudy.9 mph88%30.00 "Hg10 mi
3:53 am82 °FPassing clouds.7 mph85%29.99 "Hg10 mi
3:03 am81 °FPassing clouds.3 mph88%30.00 "Hg10 mi
1:53 am82 °FClear.9 mph85%29.99 "Hg10 mi
12:53 am83 °FClear.3 mph77%30.01 "Hg10 mi
11:53 pm
Thu, Jul 20
83 °FClear.3 mph77%30.04 "Hg10 mi
10:53 pm83 °FClear.9 mph72%30.03 "Hg10 mi
9:53 pm83 °FPassing clouds.No wind79%30.03 "Hg10 mi
8:53 pm84 °FLight rain. Mostly cloudy.23 mph77%30.03 "Hg10 mi
7:53 pm88 °FPartly sunny.5 mph63%30.02 "Hg10 mi
6:53 pm90 °FPassing clouds.5 mph57%30.00 "Hg10 mi
5:53 pm89 °FPartly sunny.6 mph65%29.99 "Hg10 mi
5:42 pm89 °FScattered clouds.7 mph63%30.00 "Hg10 mi
5:23 pm89 °FThunderstorms. Partly sunny.8 mph63%30.00 "Hg10 mi
4:53 pm89 °FBroken clouds.7 mph63%30.01 "Hg10 mi
3:53 pm91 °FSunny.6 mph57%30.03 "Hg10 mi
2:53 pm87 °FSunny.5 mph63%30.06 "Hg10 mi
1:53 pm80 °FSunny.9 mph79%30.07 "Hg10 mi
1:43 pm82 °FThundershowers. Sunny.12 mph82%30.08 "Hg10 mi
1:04 pm80 °FThunderstorms. Cloudy.5 mph85%30.08 "Hg3 mi
12:57 pm79 °FHeavy rain. Cloudy.5 mph84%30.09 "Hg1 mi
12:37 pm82 °FStrong thunderstorms. Mostly cloudy.12 mph79%30.10 "Hg2 mi
12:20 pm82 °FStrong thunderstorms. Mostly cloudy.7 mph79%30.09 "Hg1 mi
12:02 pm84 °FHeavy rain. Mostly cloudy.6 mph80%30.09 "Hg1 mi
11:53 am85 °FHeavy rain. Broken clouds.No wind77%30.10 "Hg2 mi
10:53 am85 °FBroken clouds.6 mph83%30.09 "Hg10 mi
10:36 am84 °FMostly cloudy.6 mph83%30.09 "Hg10 mi
10:18 am85 °FBroken clouds.6 mph80%30.09 "Hg10 mi
Weather by CustomWeather, © 2017

See weather overviewHow to use our weather pages